Weather in Kartsevo

Russia / Pskov Oblast     56°29′27″N   30°36′59″E
temp.,
°C
wind,
m/s
gust,
m/s
humid.,
%
clouds,
%
prec.,
mm/h
press.,
hPa
HPBL,
m
16 october, sat
sat1600:00+9ssw71585100 0.0 1007980
03:00+10ssw71479100 0.1 10051019
06:00+9wsw51091100 1.6 1005945
09:00+8w51082100 4.5 1007990
12:00+9w59642 0.0 10091206
15:00+10wsw610575 0.0 10091630
18:00+7wsw61080100 0.1 1010861
21:00+7sw5137914 0.2 1010662
17 october, sun
sun1700:00+6sw6138082 0.0 1009611
03:00+7wsw61279100 0.1 1009935
06:00+8wsw61280100 0.0 10091087
09:00+8wsw51182100 0.3 10091143
12:00+8wsw61080100 0.1 10101034
15:00+10wsw596881 0.2 10091160
18:00+7wsw4883100 0.4 1010684
21:00+8wsw398399 0.9 1009857
18 october, mon
mon1800:00+6wsw378599 2.3 1009577
03:00+5wnw3688100 3.8 1009588
06:00+4wsw388822 1.1 1009483
09:00+4wsw512851 1.1 1009771
12:00+7wnw6107054 0.0 10101268
15:00+7wnw511649 0.2 10111394
18:00+5wnw4107899 0.4 1012450
21:00+4wnw398598 0.6 1012504
19 october, tue
tue1900:00+3wnw388965 0.3 1014454
03:00+3nw498598 0.4 1015780
06:00+2nw379066 0.1 1017402
09:00+1wnw269262 0.1 1019256
12:00+5nw577588 0.1 1019971
15:00+4nw5976100 0.8 10211158
18:00+2nw5107523 0.2 1022602
21:000nw39825 0.2 1024305
20 october, wed
wed2000:00−2nw2588100 0.0 1024119
03:00−2w1185100 0.0 102420
06:00−2ssw228263 0.0 102438
09:00−1s3878100 0.0 1023274
12:00+3s51062100 0.0 1020583
15:00+4s61458100 0.0 1016711
18:00+5s81761100 0.0 1011854
21:00+4ssw81884100 1.1 1007892